Regional Weather Roundup
Issued by NWS

Home | Current Version | Previous Version | Text Only | Print | Product List | Glossary On
Versions: 1 2 3 4 5 6 7 8 9 10 11 12 13 14 15 16 17 18 19 20 21 22 23 24 25 26 27 28 29 30 31 32 33 34 35 36 37 38 39 40 41 42 43 44 45 46 47 48 49 50
000
ASUS43 KMKX 250421
RWRWI

WISCONSIN REGIONAL WEATHER ROUNDUP
NATIONAL WEATHER SERVICE MILWAUKEE/SULLIVAN WI
1000 PM CST FRI NOV 24 2017

NOTE: "FAIR" INDICATES FEW OR NO CLOUDS BELOW 12,000 FEET WITH NO
SIGNIFICANT WEATHER AND/OR OBSTRUCTIONS TO VISIBILITY.

WIZ001-002-006>008-014>016-023>028-250500-
NORTHWEST WISCONSIN

CITY           SKY/WX    TMP DP  RH WIND       PRES   REMARKS
SUPERIOR ARPT  CLOUDY    40  34  78 W9        29.61R WCI  34
ASHLAND        CLOUDY    40  35  83 W10       29.58R WCI  33
HAYWARD        CLOUDY    40  34  79 W8        29.62R WCI  34
SIREN          CLEAR     36  32  85 W6        29.67R WCI  31
CUMBERLAND     CLOUDY    37  32  81 NW13G18   29.66R WCI  29
RICE LAKE      MOCLDY    40  35  81 W9G22     29.67R WCI  34
CHETEK         MOCLDY    39  36  87 W8        29.66R WCI  34
LADYSMITH      CLOUDY    42  34  73 W20G26    29.63R
EAU CLAIRE     CLEAR     41  36  82 NW12      29.67R
MENOMONIE      CLEAR     41  35  79 W10       29.70R
NEW RICHMOND   CLEAR     39  32  76 NW9       29.70R WCI  33
OSCEOLA        CLEAR     40  33  75 W9        29.73R WCI  34
$$

WIZ003>005-009-010-017-018-250500-
NORTH CENTRAL WISCONSIN

CITY           SKY/WX    TMP DP  RH WIND       PRES   REMARKS
MANITOWISH WTR CLOUDY    37  37 100 NW9       29.54R WCI  30
ARBOR VITAE    CLEAR     39  34  83 NW7       29.53R WCI  34
WOODRUFF       CLEAR     39  34  83 NW7       29.53R WCI  34
RHINELANDER    CLOUDY    40  35  83 NW10G17   29.55R WCI  33
EAGLE RIVER    CLOUDY    38  31  76 NW13      29.53R WCI  30
LAND O LAKES   CLOUDY    38  35  88 NW8       29.52R WCI  32
PHILLIPS       CLOUDY    39  34  82 W10G18    29.58R WCI  32
TOMAHAWK       CLOUDY    39  34  80 NW9G17    29.57R WCI  33
MEDFORD        CLOUDY    39  34  81 NW15      29.59R WCI  31
MERRILL        CLOUDY    41  37  83 NW9G20    29.58R
$$

WIZ029-030-035-036-043>047-250500-
CENTRAL WISCONSIN

CITY           SKY/WX    TMP DP  RH WIND       PRES   REMARKS
WAUSAU         CLOUDY    42  38  85 NW13      29.56R
MOSINEE        CLOUDY    43  39  87 W13       29.58R
MARSHFIELD     CLOUDY    42  35  76 NW15      29.60R
STEVENS POINT  CLOUDY    43  40  90 W8G18     29.58R
WAUPACA        PTCLDY    48  43  82 W14G21    29.55R
WAUTOMA        MOCLDY    46  43  87 NW17G30   29.59R
WISC RAPIDS    CLOUDY    46  40  79 NW20G26   29.60R
CAMP DOUGLAS   MOCLDY    45  43  93 NW13      29.64R
$$

WIZ011>013-019>022-031-037>040-048>050-250500-
NORTHEAST WISCONSIN

CITY           SKY/WX    TMP DP  RH WIND       PRES   REMARKS
ANTIGO         CLOUDY    40  36  86 NW18G25   29.54R WCI  31
SHAWANO        CLOUDY    47  42  81 NW10      29.52R
OCONTO         CLOUDY    46  42  88 NW7       29.48R
STURGEON BAY   LGT RAIN  47  45  93 NW9       29.46R
GREEN BAY      CLOUDY    48  46  93 NW12      29.49R
MANITOWOC      LGT RAIN  50  47  89 W13       29.48R
APPLETON       MOCLDY    48  43  81 NW13      29.49R
CLINTONVILLE   PTCLDY    46  41  81 NW13G21   29.53R
OSHKOSH        CLOUDY    50  45  83 NW14      29.52R
$$

WIZ032>034-041-042-053>061-250500-
SOUTHWEST WISCONSIN

CITY           SKY/WX    TMP DP  RH WIND       PRES   REMARKS
LA CROSSE      CLEAR     45  39  79 NW9       29.67R
SPARTA         MOCLDY    46  41  85 W8        29.67R
VIROQUA          N/A     45  41  87 NW9       29.67R
BOSCOBEL       PTCLDY    51  41  68 NW14G24   29.67R
PRAIRIE DU CHI CLEAR     49  39  70 W13G18    29.68R
PLATTEVILLE    MOCLDY    51  43  73 NW22G32   29.64R
$$

WIZ056-057-062-063-064-067-068-250500-
SOUTH CENTRAL WISCONSIN

CITY           SKY/WX    TMP DP  RH WIND       PRES   REMARKS
REEDSBURG      MOCLDY    48  41  76 NW13G24   29.61R
BARABOO/DELLS  MOCLDY    48  40  74 NW13G21   29.60R
LONE ROCK      MOCLDY    51  42  71 NW16G30   29.63R
MINERAL POINT  CLOUDY    52  45  76 NW16G31   29.62R
MADISON        CLOUDY    52  44  74 NW10      29.59R
MIDDLETON      CLOUDY    54  46  73 NW18G29   29.58R
WATERTOWN      CLOUDY    53  45  74 W13       29.54R
MONROE         CLOUDY    54  41  62 W18       29.58R
JANESVILLE     CLOUDY    54  41  62 W8        29.55R
$$

WIZ051-052-058>065-066-070>072-250500-
SOUTHEAST WISCONSIN

CITY           SKY/WX    TMP DP  RH WIND       PRES   REMARKS
MILWAUKEE      LGT RAIN  57  42  57 NW13      29.50R
WAUKESHA       CLOUDY    50  41  71 W10       29.53R
MILWAUKEE/TIMM CLOUDY    54  39  58 NW14G20   29.52R
RACINE         LGT RAIN  54  42  64 W5        29.50R
BURLINGTON     CLOUDY    57  46  66 W10       29.53R
KENOSHA        LGT RAIN  53  41  63 W7        29.50R
FOND DU LAC    CLOUDY    51  44  77 NW15G24   29.52R
SHEBOYGAN      LGT RAIN  51  47  86 W9        29.49R
WEST BEND      CLOUDY    52  43  71 NW15G25   29.51R
JUNEAU         LGT RAIN  51  44  77 NW10G21   29.55R
$$

LSZ147-162-250500-
LAKE SUPERIOR

STATION/POSITION TIME  TEMP    WIND        PRES    WAVE
                       AIR SEA DIR/SP/G            HT/PER
                 (UTC) (F)     (DEG/KT/KT) (MB)    (FT/S)
DEVILS ISLAND    0400   42     280/ 19/ 22 1000.8R
SAXON HARBOR     0340   41     230/  5/  7 1001.0R
$$

LMZ867-665-643>646-250500-
LAKE MICHIGAN

STATION/POSITION TIME  TEMP    WIND        PRES    WAVE
                       AIR SEA DIR/SP/G            HT/PER
                 (UTC) (F)     (DEG/KT/KT) (MB)    (FT/S)
N MID LAKE BUOY  0350   45 47  310/ 10/ 12  997.0R   7/ 8
NORTHPORT PIER   0340   46     300/  8/ 12  996.6R
KEWAUNEE LAKESHO 0354   49     290/  8/ 12  997.0R
SHEBOYGAN LAKESH 0400   53     290/ 15/ 18  998.4R
PORT WASHINGTON  0330   57     310/  7/ 19  999.0R
MILWAUKEE LAKESH 0400   56     300/ 13/ 18   N/A
S MID LAKE BUOY  0350   49 47  250/ 16/ 17  998.3R   5/ 6
KENOSHA   LAKESH 0400   55     270/  7/ 12  999.0
$$

TC  - TEMPERATURE IN CELSIUS
VSB - VISIBILITY IN STATUTE MILES
WCI - WIND CHILL INDEX
HX  - HEAT INDEX




USA.gov is the U.S. government's official web portal to all federal, state and local government web resources and services.